Regional Weather Roundup
Issued by NWS

Home | Current Version | Previous Version | Graphics & Text | Print | Product List | Glossary Off
Versions: 1 2 3 4 5 6 7 8 9 10 11 12 13 14 15 16 17 18 19 20 21 22 23 24 25 26 27 28 29 30 31 32 33 34 35 36 37 38 39 40 41 42 43 44 45 46 47 48 49 50

000
ASUS43 KIND 230109
RWRIN

WEATHER ROUNDUP FOR INDIANA
NATIONAL WEATHER SERVICE INDIANAPOLIS IN
900 PM EDT TUE AUG 22 2017

NOTE: "FAIR" INDICATES FEW OR NO CLOUDS BELOW 12,000 FEET WITH NO
SIGNIFICANT WEATHER AND/OR OBSTRUCTIONS TO VISIBILITY.

* - STATION DOES NOT REPORT WEATHER SUCH AS PRECIPITATION OR FOG.

+ - STATION NOT QUALITY CONTROLLED BY THE NATIONAL WEATHER SERVICE.
    USE DATA WITH CAUTION...ESPECIALLY DEWPOINT AND RELATIVE
    HUMIDITY OBSERVATIONS.

INZ001>003-010>013-019-020-230200-
NORTHWEST INDIANA

CITY           SKY/WX    TMP DP  RH WIND       PRES   REMARKS
GARY /AIRPORT/ PTCLDY    73  48  40 NW8G20    29.95R
KNOX *+        CLEAR     63  59  88 N3        29.94R
LA PORTE +     CLEAR     66  59  79 N5        29.95R
MICHIGAN CITY+ CLEAR     68  55  64 N5        29.95R
MONTICELLO +   MOCLDY    66  62  85 N6        29.95R
RENSSELAER +   PTCLDY    68  54  60 NW5       29.95R
VALPARAISO     PTCLDY    70  61  73 CALM      29.95R

$$

LMZ046-743>745-230200-
SOUTHERN LAKE MICHIGAN

STATION/POSITION TIME  TEMP    WIND        PRES    WAVE
                       AIR SEA DIR/SP/G            HT
                 (UTC) (F)     (DEG/KT/KT) (MB)    (FT)
BURNS HARBOR     0040   74     340/ 16/ 21 1014.2R
MICHIGAN CITY    0040   73     330/ 20/ 22   N/A
5NW MICH CITY    0100   74 74  340/ 16/ 19   N/A     5

$$

INZ004-005-014>016-021>024-230200-
NORTH CENTRAL INDIANA

CITY           SKY/WX    TMP DP  RH WIND       PRES   REMARKS
ELKHART        CLEAR     68  55  64 CALM      29.94R
GOSHEN         CLEAR     68  55  63 NW7       29.94R
LOGANSPORT +   MOCLDY    68  61  77 W3        29.94R
PERU/GRISSOM   CLOUDY    73  62  69 NW6       29.93R
ROCHESTER +    CLEAR     70  59  68 N6        29.95R
SOUTH BEND     CLEAR     66  59  78 NW3       29.94R
WARSAW +       CLEAR     66  57  72 N5        29.94R

$$

INZ006>009-017-018-025>027-230200-
NORTHEAST INDIANA

CITY           SKY/WX    TMP DP  RH WIND       PRES   REMARKS
AUBURN +       CLEAR     68  54  60 NW8       29.93R
FORT WAYNE     PTCLDY    70  58  65 NW8       29.93R
HUNTINGTON +   MOCLDY    69  61  74 NW5       29.93R

$$

INZ028-029-035-036-043>045-051>053-230200-
WEST CENTRAL INDIANA

CITY           SKY/WX    TMP DP  RH WIND       PRES   REMARKS
GREENCASTLE +  CLEAR     70  61  73 NW5       29.97R
LAFAYETTE      CLEAR     67  64  90 W5        29.95R
TERRE HAUTE    CLEAR     73  59  61 NW7       29.97R

$$

INZ030>032-037>040-046>048-054>057-064-065-230200-
CENTRAL INDIANA

CITY           SKY/WX    TMP DP  RH WIND       PRES   REMARKS
CP ATTERBURY + MOCLDY    73  64  73 NW3       29.95R
COLUMBUS       MOCLDY    73  66  78 W5        29.94R
FRANKFORT +    PTCLDY    69  64  84 W5        29.97R
GREENWOOD *+   MOCLDY   N/A N/A N/A NW7       29.95R
INDIANAPOLIS   PTCLDY    72  62  71 NW10      29.95R
-EAGLE CREEK   CLEAR     73  61  65 NW12      29.94R
KOKOMO +       MOCLDY    69  64  84 W6        29.95R
MARION +       PTCLDY    66  63  88 NW3       29.94R
MT COMFORT *+  CLEAR     73  63  68 NW10      29.94R
SHELBYVILLE    CLEAR     73  64  73 NW8       29.93R
ZIONSVILLE +   CLEAR     67  62  84 W5        29.96R

$$

INZ033-034-041-042-049-050-058-059-230200-
EAST CENTRAL INDIANA

CITY           SKY/WX    TMP DP  RH WIND       PRES   REMARKS
MUNCIE         CLEAR     72  63  73 NW7       29.93R
RICHMOND +     PTCLDY    70  64  83 W5        29.94S

$$

INZ060-061-067>069-081>083-085>088-230200-
SOUTHWEST INDIANA

CITY           SKY/WX    TMP DP  RH WIND       PRES   REMARKS
EVANSVILLE     CLOUDY    76  68  76 W3        29.96R
HUNTINGBURG +  PTCLDY    73  68  84 W3        29.96R
WASHINGTON +   PTCLDY    73  65  77 MISG      29.95S

$$

INZ062-063-066-070>080-084-089>092-230200-
SOUTH CENTRAL AND SOUTHEAST INDIANA

CITY           SKY/WX    TMP DP  RH WIND       PRES   REMARKS
BEDFORD +      CLEAR     73  64  73 CALM      29.94
BLOOMINGTON    MOCLDY    75  64  68 NW5       29.96R
MADISON *+     CLOUDY    72  70  94 CALM      29.95R
NORTH VERNON + MOCLDY    72  68  88 W5        29.94R
SEYMOUR +      MOCLDY    75  66  73 NW5       29.93R

$$





USA.gov is the U.S. government's official web portal to all federal, state and local government web resources and services.